Theta_e
347 348 345 344 342 339 344 342 343 344 345 343 342 340 349 351 348 343 348 352 353 353 353 352 350 349 350 348 348 347 346 345 343 341 340 341 337 328 327 330 329 329 333
345 343 343 341 340 347 340 342 343 344 344 344 343 340 343 349 352 351 347 351 353 353 353 353 352 351 340 340 349 350 346 345 344 343 344 343 342 342 336 331 333 338 341
350 345 345 346 344 342 341 343 344 344 344 344 345 343 340 345 351 350 347 350 353 354 354 354 353 353 353 349 352 351 350 353 352 352 349 347 346 346 347 347 346 344 342
350 350 348 342 344 343 343 344 344 345 345 344 344 345 341 337 347 351 350 345 351 353 353 354 355 354 354 353 353 354 354 353 351 351 349 347 345 345 347 349 349 350 349
350 351 350 343 343 343 344 344 344 345 345 345 345 345 344 345 346 347 349 350 349 349 353 352 349 350 348 347 354 354 355 354 351 350 348 349 349 350 351 351 353 353 352
351 351 351 344 344 345 346 345 345 345 345 345 345 345 346 348 345 341 340 348 349 349 349 347 343 343 340 341 344 344 346 348 351 354 351 351 351 353 353 353 352 352 354
352 351 351 347 345 345 346 346 346 346 345 344 345 345 346 344 339 335 333 335 345 346 344 346 347 349 347 341 337 334 335 336 339 341 343 345 344 347 349 353 354 356 358
352 349 348 348 346 346 346 346 347 346 346 346 345 345 345 344 339 337 334 334 334 335 341 346 338 333 339 347 352 352 350 347 343 337 335 335 338 349 356 356 356 355 355
351 348 346 345 346 346 346 347 346 347 347 346 345 345 344 342 338 334 337 340 338 333 331 331 332 331 330 330 331 332 334 338 348 348 347 349 356 357 356 357 356 358 356
351 344 344 345 345 346 346 346 346 346 346 347 346 345 342 340 338 335 337 341 345 344 337 332 331 331 330 331 332 334 336 342 354 358 360 361 361 361 356 357 359 360 360
354 355 354 349 346 346 346 345 345 346 348 345 349 346 340 337 337 335 336 339 343 348 349 349 350 347 338 343 347 350 352 356 358 359 360 358 359 357 359 359 360 358 358
354 355 353 347 349 353 347 347 347 347 346 345 344 344 349 339 337 336 335 339 342 344 349 352 357 359 357 357 358 358 359 359 358 356 356 357 357 359 361 362 357 357 355
356 355 355 352 346 354 351 352 355 352 357 356 357 356 356 357 350 344 346 348 350 351 353 359 360 362 360 359 360 360 360 358 358 359 360 364 360 357 356 355 353 350 344
358 359 360 359 358 358 358 359 359 359 359 359 359 359 359 359 361 362 353 353 354 355 356 356 357 358 359 360 360 359 361 362 362 361 359 358 356 354 354 351 344 341 340
359 360 361 360 359 361 361 360 360 359 360 359 360 360 361 361 362 363 364 362 355 356 357 358 358 359 360 360 358 359 362 363 360 360 356 354 354 351 345 340 340 339 338
356 357 358 358 361 360 361 359 360 360 360 360 360 362 362 362 363 363 360 361 358 355 357 359 360 361 360 361 361 362 362 360 356 351 349 348 344 340 340 339 338 337 338
357 357 356 357 358 359 359 356 354 356 360 359 359 360 363 361 361 358 357 357 357 359 360 361 362 366 365 361 361 359 354 349 347 343 341 341 340 339 338 338 338 338 337
356 350 356 356 348 345 342 343 339 343 350 354 356 356 356 357 358 358 359 360 361 362 363 363 361 361 359 355 350 345 343 343 342 338 335 338 339 339 338 338 337 336 334
352 349 348 340 337 335 335 335 337 338 353 352 354 356 358 360 360 359 360 359 356 351 350 353 354 354 354 351 345 341 338 334 332 332 333 335 337 336 336 333 335 334 333
346 346 345 345 343 342 340 336 338 351 351 352 356 359 359 360 359 357 356 356 353 352 350 349 347 345 341 338 336 333 332 332 332 333 333 334 334 333 334 334 333 333 331
344 347 353 352 337 341 353 353 352 349 347 352 353 354 353 353 351 351 348 345 344 345 343 340 339 336 334 332 331 331 332 332 332 331 331 330 331 330 330 331 331 331 331
339 341 342 348 350 351 350 349 350 350 352 353 351 349 349 350 348 345 342 340 338 338 337 334 333 332 330 329 329 328 328 326 326 325 326 325 325 326 328 329 329 330 330
336 338 337 336 340 346 344 343 344 343 343 344 343 341 339 339 338 337 337 336 335 333 332 330 329 328 327 326 325 324 323 322 322 323 324 325 325 324 327 329 329 330 330
335 336 333 332 331 338 340 343 344 343 341 340 338 338 336 335 335 334 333 333 330 329 327 326 325 324 321 317 316 314 315 315 314 314 315 318 321 322 325 328 326 328 329
330 334 335 334 334 334 335 339 340 339 338 337 334 334 333 332 331 330 329 327 325 323 320 318 316 314 313 312 312 311 310 308 307 307 309 316 317 318 322 325 326 326 328
327 328 330 328 332 332 332 334 336 335 332 332 331 329 328 327 325 323 322 321 312 314 307 310 310 308 307 305 303 302 300 298 298 298 300 313 314 315 316 318 321 321 322
Wind_Speed
43 41 42 39 40 41 35 35 32 28 25 21 20 18 19 18 18 20 18 14 13 12 13 13 13 13 11 10 10 11 12 12 14 14 13 14 22 19 19 21 23 24 23
43 47 46 45 42 35 39 36 34 31 28 26 24 22 21 20 19 20 20 16 17 16 15 15 15 13 15 15 14 15 15 16 16 21 18 19 20 22 27 26 26 23 23
38 41 41 40 40 41 40 37 35 32 29 28 28 26 24 23 21 22 23 20 19 18 17 18 17 16 17 15 15 15 15 16 16 18 21 19 20 21 24 25 26 27 26
38 39 41 45 43 42 42 39 36 33 30 30 31 28 27 26 24 23 23 24 22 20 20 19 19 19 19 18 17 18 17 18 19 22 22 22 21 21 21 23 22 21 24
43 41 43 47 47 45 42 40 37 34 32 32 32 31 29 27 25 27 25 24 24 24 22 22 23 23 24 23 19 18 18 19 20 21 23 22 22 22 22 25 28 28 28
46 49 46 48 47 46 45 43 40 36 35 34 34 33 32 28 27 30 28 24 25 24 25 25 25 27 26 26 26 25 26 28 29 27 26 27 29 28 26 30 32 33 38
47 47 47 49 49 47 45 43 42 40 37 37 36 35 35 33 31 31 30 30 25 26 27 26 25 23 25 28 29 30 31 31 32 34 38 37 37 34 32 33 33 34 32
45 48 47 49 48 47 47 46 44 41 41 40 38 37 36 36 34 33 32 32 34 34 33 31 33 33 31 28 25 26 28 29 31 34 39 39 35 29 27 28 31 35 34
47 48 47 46 45 45 46 45 43 41 40 40 39 39 39 38 37 34 34 35 37 38 38 39 39 39 38 37 37 39 39 37 30 32 35 33 30 27 24 27 29 32 39
48 45 45 44 43 43 43 43 42 41 41 38 38 39 40 39 38 37 35 35 34 34 37 39 41 42 41 40 38 37 38 34 26 25 26 26 24 24 21 25 27 29 32
36 34 38 41 41 40 39 37 37 39 36 39 37 37 38 38 37 37 35 36 35 30 29 28 27 30 32 29 30 31 32 26 24 24 25 23 20 23 26 27 31 32 29
35 36 38 39 36 33 36 35 35 36 37 36 36 35 33 37 38 37 35 35 35 35 31 25 24 26 28 23 23 26 24 21 26 28 30 31 29 28 29 29 26 24 27
29 34 34 34 35 33 35 34 32 33 29 31 28 28 26 25 29 32 33 33 33 34 32 24 26 28 28 24 24 23 23 25 26 29 28 27 28 27 26 23 19 17 18
26 27 25 26 28 29 27 28 28 28 29 28 28 26 25 24 23 22 31 31 30 32 32 33 31 30 28 25 24 24 24 24 25 26 29 25 24 21 12 13 14 12 14
24 22 21 21 22 21 21 23 24 23 25 26 25 23 23 24 23 23 21 21 28 29 27 26 25 26 27 26 26 26 26 27 29 27 17 16 12 13 12 11 10 11 12
21 21 20 19 17 18 20 22 24 26 28 28 26 23 23 24 24 24 23 24 20 20 22 25 23 23 24 25 25 25 21 18 17 15 11 11 11 10 10 9 10 10 11
22 18 15 18 19 24 25 16 5 13 19 26 28 29 25 23 25 21 20 21 20 19 20 20 20 21 21 20 19 17 14 12 16 11 9 9 9 9 11 9 10 10 12
16 19 17 21 21 16 10 13 12 17 31 27 30 30 27 24 21 21 20 19 19 20 20 18 18 17 16 13 12 8 6 10 13 15 13 8 9 9 10 10 10 12 12
14 18 18 19 13 10 9 11 12 28 25 29 28 26 22 19 17 16 15 13 12 12 13 15 15 16 16 17 17 17 17 16 15 14 14 9 11 12 9 11 12 16 16
8 9 15 17 19 14 13 20 23 27 30 22 27 27 24 22 21 21 19 21 20 18 15 14 13 14 15 15 15 16 15 14 14 14 13 13 12 12 13 13 14 14 17
8 8 10 11 16 22 18 17 23 25 29 29 28 26 26 23 19 17 16 16 17 18 17 14 13 12 12 12 12 13 11 11 12 13 13 12 14 15 15 17 18 17 18
11 9 10 9 10 20 29 30 28 28 28 28 25 23 21 20 20 18 17 15 14 14 12 11 11 11 12 13 12 9 7 8 9 10 11 13 14 16 16 17 18 18 17
5 5 6 8 9 10 13 16 22 23 22 21 21 22 20 18 17 15 14 13 11 10 10 10 11 11 11 8 7 6 7 8 9 10 12 12 12 12 15 16 16 17 17
1 3 4 4 5 10 11 13 15 16 18 19 20 20 19 18 16 15 13 12 11 10 9 9 9 8 7 3 3 3 5 6 7 8 10 10 10 12 15 15 15 17 19
4 4 2 5 6 4 4 9 14 16 17 18 19 19 18 17 16 15 14 13 11 10 10 10 8 7 6 6 6 6 8 10 11 11 10 10 11 13 14 16 18 19 19
3 5 5 10 6 2 5 8 13 16 16 18 18 18 17 16 15 14 13 13 12 14 10 10 9 7 5 6 7 9 11 12 12 13 10 7 9 10 12 12 15 16 16
Wind_Direction
211 213 215 217 220 226 226 233 236 234 235 233 240 225 217 220 224 227 221 219 232 228 224 231 239 234 234 244 251 250 253 258 266 274 277 283 292 290 287 283 290 290 284
209 215 218 219 221 220 227 230 235 235 234 233 236 233 225 224 224 227 229 226 233 235 234 235 238 240 248 241 242 248 251 257 264 274 278 282 285 289 298 296 294 287 279
204 209 212 214 217 220 224 227 232 233 234 233 234 234 231 226 225 229 233 234 233 236 234 235 238 238 243 241 247 249 262 271 274 277 284 285 285 286 289 298 305 301 299
203 205 209 215 216 218 223 225 228 229 231 231 234 236 234 232 229 229 233 237 238 240 238 236 238 240 244 250 253 257 263 264 269 275 281 287 290 290 287 293 300 302 299
206 204 209 214 218 222 223 223 224 227 228 229 233 237 237 232 231 233 231 235 239 242 241 243 247 248 251 255 252 260 258 266 271 274 278 284 287 291 290 293 294 300 298
205 207 207 214 217 221 224 225 225 223 223 226 228 233 235 232 233 235 236 235 238 241 244 247 248 251 255 256 258 260 264 269 271 271 274 277 279 287 293 293 293 294 296
204 206 207 214 214 217 221 223 225 224 223 225 227 229 234 238 237 239 240 241 239 243 246 248 250 252 263 264 264 264 264 265 269 275 275 275 279 285 291 292 293 289 289
204 211 211 217 217 217 219 222 223 224 226 227 229 231 234 238 240 240 242 243 246 247 248 252 256 256 254 254 260 264 269 273 276 278 279 285 290 294 292 291 290 293 293
204 212 216 216 216 216 219 219 220 221 222 225 228 231 233 236 239 239 241 244 247 250 252 255 257 261 263 266 268 270 273 273 272 275 281 286 286 285 285 285 286 294 300
206 212 213 212 212 214 216 216 216 217 219 220 224 229 233 236 238 240 241 242 245 249 254 256 256 258 261 267 270 272 273 275 275 275 274 280 286 292 287 278 290 296 298
203 203 206 211 214 213 211 212 215 216 216 221 225 228 233 237 239 241 240 241 242 245 246 250 256 263 263 261 262 262 264 270 273 274 277 278 278 278 283 291 293 297 297
197 199 203 209 208 209 215 213 213 214 217 222 224 228 232 235 237 239 240 240 243 244 242 248 252 257 263 262 257 258 262 264 266 270 271 277 280 283 288 288 292 291 291
196 201 203 204 207 205 205 206 206 209 208 214 218 221 224 230 237 239 239 237 235 238 239 238 237 244 256 258 254 256 254 259 265 273 275 283 287 287 290 295 306 305 305
193 196 196 201 201 198 205 206 206 209 212 215 217 221 223 223 224 225 228 227 227 232 237 241 245 248 249 250 249 252 258 263 266 273 280 284 280 287 289 289 286 289 295
187 187 189 193 201 204 199 205 212 215 217 216 216 216 215 218 220 218 216 227 231 237 242 243 242 246 250 249 257 263 266 272 275 267 272 284 278 276 283 281 289 294 297
184 178 178 186 192 192 205 214 208 210 213 211 207 208 220 213 216 226 220 217 229 234 232 236 243 246 250 256 260 263 262 260 267 271 269 268 273 277 277 281 286 295 297
171 149 164 178 169 182 185 172 169 263 247 223 216 210 210 219 218 222 220 220 228 232 232 237 242 243 247 253 248 245 255 264 258 267 266 270 274 278 284 286 287 291 289
130 161 181 172 156 168 205 201 239 312 291 253 230 224 223 226 220 215 214 217 221 224 229 234 240 237 235 233 235 234 223 232 246 255 258 266 272 277 276 275 276 276 293
139 175 181 177 178 173 214 202 240 240 253 250 231 217 211 204 195 199 208 206 202 201 215 222 222 232 237 240 242 248 254 257 260 266 271 269 266 269 277 280 276 297 300
49 183 180 178 169 190 191 205 209 213 229 218 205 198 191 186 180 187 202 211 209 211 212 215 223 233 240 250 257 260 260 262 268 274 277 273 274 279 281 287 290 289 287
43 82 152 169 175 182 208 193 196 209 201 198 190 178 176 179 183 192 193 195 200 203 201 205 217 228 239 252 264 270 265 267 271 274 279 283 285 284 284 289 294 292 292
49 51 79 114 172 190 198 197 205 204 197 196 191 186 190 192 191 192 195 197 201 208 222 238 245 249 258 268 271 267 265 273 275 279 284 289 290 289 287 289 290 291 289
78 50 96 118 160 178 185 189 188 187 187 188 186 181 184 188 192 195 196 202 208 219 225 230 242 251 261 256 253 257 266 277 285 288 289 290 293 294 284 282 286 286 288
218 178 89 122 167 172 183 185 186 190 189 187 186 188 187 187 189 187 192 201 208 218 220 231 224 216 207 203 236 268 268 279 289 297 306 305 305 301 296 288 288 284 290
250 232 219 279 216 205 200 192 190 191 194 195 193 192 188 186 186 189 192 191 186 187 173 170 175 187 207 226 252 276 287 296 304 306 311 314 313 312 303 297 290 284 282
194 222 242 240 265 252 225 214 199 194 196 194 193 189 185 184 181 181 187 179 169 167 155 172 177 190 219 258 282 292 302 309 308 309 311 321 314 318 313 315 304 306 296